Hourly Weather Danapur

Today, 17 April, Saturday

Time Temperature Precipitation Wind Pressure Humidity
00:00 +34°C° 0 mm 2 mps 749 mmHg 13%
01:00 +32°C° 0 mm 2 mps 749 mmHg 13%
02:00 +32°C° 0 mm 1 mps 749 mmHg 14%
03:00 +31°C° 0 mm 1 mps 748 mmHg 14%
04:00 +30°C° 0 mm 1 mps 749 mmHg 16%
05:00 +30°C° 0 mm 2 mps 749 mmHg 17%
06:00 +29°C° 0 mm 2 mps 749 mmHg 18%
07:00 +31°C° 0 mm 2 mps 750 mmHg 17%
08:00 +34°C° 0 mm 3 mps 751 mmHg 16%
09:00 +37°C° 0 mm 3 mps 751 mmHg 15%
10:00 +39°C° 0 mm 3 mps 751 mmHg 13%
11:00 +41°C° 0 mm 2 mps 751 mmHg 11%
12:00 +43°C° 0 mm 2 mps 750 mmHg 9%
13:00 +44°C° 0 mm 3 mps 749 mmHg 9%
14:00 +45°C° 0 mm 3 mps 748 mmHg 8%
15:00 +47°C° 0 mm 4 mps 747 mmHg 7%
16:00 +45°C° 0 mm 4 mps 747 mmHg 8%
17:00 +45°C° 0 mm 3 mps 747 mmHg 8%
18:00 +44°C° 0 mm 3 mps 746 mmHg 8%
19:00 +42°C° 0 mm 3 mps 747 mmHg 9%
20:00 +39°C° 0 mm 2 mps 748 mmHg 10%
21:00 +37°C° 0 mm 2 mps 748 mmHg 11%
22:00 +36°C° 0 mm 2 mps 748 mmHg 13%
23:00 +36°C° 0 mm 2 mps 749 mmHg 14%

Tomorrow, 18 April, Sunday

Time Temperature Precipitation Wind Pressure Humidity
00:00 +35°C° 0 mm 2 mps 749 mmHg 15%
01:00 +34°C° 0 mm 2 mps 749 mmHg 17%
02:00 +32°C° 0 mm 2 mps 749 mmHg 19%
03:00 +32°C° 0 mm 2 mps 749 mmHg 22%
04:00 +31°C° 0.1 mm 2 mps 749 mmHg 24%
05:00 +30°C° 0.1 mm 1 mps 749 mmHg 26%
06:00 +29°C° 0.1 mm 1 mps 750 mmHg 27%
07:00 +31°C° 0 mm 1 mps 750 mmHg 24%
08:00 +34°C° 0 mm 1 mps 751 mmHg 21%
09:00 +37°C° 0 mm 2 mps 751 mmHg 18%
10:00 +39°C° 0 mm 2 mps 751 mmHg 16%
11:00 +42°C° 0 mm 3 mps 750 mmHg 13%
12:00 +44°C° 0 mm 4 mps 750 mmHg 11%
13:00 +45°C° 0 mm 5 mps 749 mmHg 10%
14:00 +46°C° 0 mm 6 mps 748 mmHg 9%
15:00 +48°C° 0 mm 8 mps 747 mmHg 8%
16:00 +46°C° 0 mm 7 mps 746 mmHg 8%
17:00 +45°C° 0 mm 7 mps 746 mmHg 8%
18:00 +44°C° 0 mm 7 mps 746 mmHg 8%
19:00 +41°C° 0 mm 6 mps 747 mmHg 9%
20:00 +39°C° 0 mm 5 mps 747 mmHg 10%
21:00 +36°C° 0 mm 4 mps 748 mmHg 11%
22:00 +35°C° 0 mm 4 mps 748 mmHg 12%
23:00 +34°C° 0 mm 3 mps 748 mmHg 13%

Day after tomorrow, 19 April, Monday

Time Temperature Precipitation Wind Pressure Humidity
00:00 +33°C° 0 mm 3 mps 748 mmHg 15%
01:00 +31°C° 0 mm 3 mps 748 mmHg 15%
02:00 +31°C° 0 mm 3 mps 748 mmHg 16%
03:00 +30°C° 0 mm 3 mps 748 mmHg 17%
04:00 +30°C° 0 mm 3 mps 748 mmHg 17%
05:00 +29°C° 0 mm 3 mps 748 mmHg 18%
06:00 +29°C° 0 mm 3 mps 748 mmHg 18%
07:00 +33°C° 0 mm 3 mps 749 mmHg 16%
08:00 +36°C° 0 mm 2 mps 749 mmHg 13%
09:00 +39°C° 0 mm 2 mps 750 mmHg 11%
10:00 +41°C° 0 mm 4 mps 749 mmHg 9%
11:00 +43°C° 0 mm 5 mps 749 mmHg 8%
12:00 +46°C° 0 mm 7 mps 748 mmHg 6%
13:00 +46°C° 0 mm 7 mps 747 mmHg 6%
14:00 +47°C° 0 mm 7 mps 747 mmHg 6%
15:00 +47°C° 0 mm 7 mps 746 mmHg 5%
16:00 +46°C° 0 mm 7 mps 746 mmHg 5%
17:00 +46°C° 0 mm 6 mps 745 mmHg 5%
18:00 +45°C° 0 mm 6 mps 745 mmHg 6%
19:00 +42°C° 0 mm 5 mps 746 mmHg 7%
20:00 +38°C° 0 mm 4 mps 746 mmHg 8%
21:00 +36°C° 0 mm 2 mps 747 mmHg 9%
22:00 +35°C° 0 mm 2 mps 747 mmHg 9%
23:00 +35°C° 0 mm 2 mps 747 mmHg 10%

20 April, Tuesday

Time Temperature Precipitation Wind Pressure Humidity
00:00 +34°C° 0 mm 2 mps 746 mmHg 10%
01:00 +32°C° 0 mm 2 mps 746 mmHg 11%
02:00 +32°C° 0 mm 2 mps 746 mmHg 11%
03:00 +31°C° 0 mm 2 mps 746 mmHg 12%
04:00 +30°C° 0 mm 2 mps 746 mmHg 12%
05:00 +29°C° 0 mm 2 mps 747 mmHg 13%
06:00 +28°C° 0 mm 2 mps 747 mmHg 14%
07:00 +31°C° 0 mm 2 mps 748 mmHg 13%
08:00 +35°C° 0 mm 2 mps 748 mmHg 12%
09:00 +37°C° 0 mm 2 mps 749 mmHg 11%
10:00 +39°C° 0 mm 2 mps 749 mmHg 9%
11:00 +42°C° 0 mm 1 mps 748 mmHg 8%
12:00 +41°C° 0 mm 0 mps 748 mmHg 6%
13:00 +45°C° 0 mm 1 mps 747 mmHg 6%
14:00 +46°C° 0 mm 2 mps 746 mmHg 6%
15:00 +47°C° 0 mm 3 mps 745 mmHg 5%
16:00 +46°C° 0 mm 3 mps 745 mmHg 6%
17:00 +47°C° 0 mm 4 mps 745 mmHg 6%
18:00 +45°C° 0 mm 4 mps 745 mmHg 6%
19:00 +43°C° 0 mm 3 mps 745 mmHg 7%
20:00 +40°C° 0 mm 2 mps 746 mmHg 8%
21:00 +37°C° 0 mm 1 mps 746 mmHg 8%
22:00 +37°C° 0 mm 1 mps 746 mmHg 9%
23:00 +36°C° 0 mm 1 mps 746 mmHg 9%

21 April, Wednesday

Time Temperature Precipitation Wind Pressure Humidity
00:00 +36°C° 0 mm 1 mps 746 mmHg 9%
01:00 +35°C° 0 mm 2 mps 746 mmHg 13%
02:00 +34°C° 0 mm 3 mps 746 mmHg 16%
03:00 +33°C° 0 mm 3 mps 746 mmHg 19%
04:00 +32°C° 0 mm 4 mps 747 mmHg 30%
05:00 +30°C° 0 mm 4 mps 747 mmHg 40%
06:00 +29°C° 0 mm 5 mps 748 mmHg 50%
07:00 +32°C° 0 mm 5 mps 748 mmHg 45%
08:00 +34°C° 0 mm 5 mps 749 mmHg 41%
09:00 +37°C° 0 mm 5 mps 750 mmHg 36%
10:00 +40°C° 0 mm 4 mps 750 mmHg 29%
11:00 +42°C° 0 mm 4 mps 749 mmHg 23%
12:00 +44°C° 0 mm 3 mps 749 mmHg 16%
13:00 +45°C° 0 mm 3 mps 748 mmHg 15%
14:00 +47°C° 0 mm 4 mps 747 mmHg 13%
15:00 +48°C° 0 mm 4 mps 747 mmHg 11%
16:00 +46°C° 0 mm 3 mps 746 mmHg 12%
17:00 +46°C° 0 mm 3 mps 746 mmHg 12%
18:00 +45°C° 0 mm 2 mps 746 mmHg 13%
19:00 +43°C° 0 mm 3 mps 747 mmHg 15%
20:00 +39°C° 0 mm 3 mps 747 mmHg 17%
21:00 +37°C° 0 mm 3 mps 748 mmHg 18%
22:00 +37°C° 0 mm 3 mps 748 mmHg 19%
23:00 +37°C° 0 mm 2 mps 748 mmHg 19%

22 April, Thursday

Time Temperature Precipitation Wind Pressure Humidity
00:00 +36°C° 0 mm 2 mps 749 mmHg 20%
01:00 +35°C° 0 mm 2 mps 749 mmHg 23%
02:00 +34°C° 0 mm 2 mps 749 mmHg 25%
03:00 +32°C° 0 mm 1 mps 749 mmHg 28%
04:00 +32°C° 0 mm 2 mps 749 mmHg 31%
05:00 +31°C° 0 mm 2 mps 749 mmHg 34%
06:00 +31°C° 0 mm 3 mps 750 mmHg 37%
07:00 +34°C° 0 mm 2 mps 750 mmHg 34%
08:00 +36°C° 0 mm 2 mps 750 mmHg 31%
09:00 +37°C° 0 mm 1 mps 751 mmHg 29%
10:00 +40°C° 0 mm 2 mps 750 mmHg 23%
11:00 +42°C° 0 mm 2 mps 750 mmHg 17%
12:00 +45°C° 0 mm 3 mps 749 mmHg 11%
13:00 +45°C° 0 mm 4 mps 749 mmHg 10%
14:00 +46°C° 0 mm 5 mps 748 mmHg 9%
15:00 +47°C° 0 mm 6 mps 747 mmHg 9%
16:00 +46°C° 0 mm 6 mps 747 mmHg 9%
17:00 +46°C° 0 mm 6 mps 746 mmHg 9%
18:00 +45°C° 0 mm 5 mps 745 mmHg 10%
19:00 +42°C° 0 mm 4 mps 746 mmHg 12%
20:00 +38°C° 0 mm 4 mps 747 mmHg 15%
21:00 +36°C° 0 mm 3 mps 748 mmHg 18%
22:00 +35°C° 0 mm 3 mps 748 mmHg 19%
23:00 +34°C° 0 mm 2 mps 749 mmHg 20%
Show more